Back to catalog

ONEWEB-0602

AliveCommunicationsPO
NORAD 54666·PAYLOAD·🇬🇧 United Kingdom

Launched Dec 8, 2022 from Cape Canaveral Space Force Station

Loading…

Next Passes (next 24 hours)

TLE

FreshSource: CelesTrak SupGP

Epoch: Sep 14, 2026, 08:04 UTC

1 54666C 22166AA  26257.33664766  .00002490  00000+0  60369-2 0  2574
2 54666  87.9268 226.2513 0002343  80.4865 354.4383 13.21823727    10

Track ONEWEB-0602 in real time with AllMySat

Download on the App Store